Regional Weather Roundup
Issued by NWS

Home | Current Version | Previous Version | Graphics & Text | Print | Product List | Glossary On
Versions: 1 2 3 4 5 6 7 8 9 10 11 12 13 14 15 16 17 18 19 20 21 22 23 24 25 26 27 28 29 30 31 32 33 34 35 36 37 38 39 40 41 42 43 44 45 46 47 48 49
000
ASUS45 KSLC 200110
RWRUT

UTAH REGIONAL WEATHER ROUNDUP
NATIONAL WEATHER SERVICE SALT LAKE CITY UT
700 PM MDT TUE AUG 19 2014

UTZ001>011-023>025-200200-

NORTHERN UTAH

CITY           SKY/WX    TMP DP  RH WIND       PRES   REMARKS
HILL AFB       PTSUNNY   73  52  46 S12       29.90R
LOGAN          SUNNY     77  49  37 NW6       29.86S
OGDEN          SUNNY     75  49  39 S13       29.87S
PROVO AIRPORT  MOSUNNY   72  54  53 SE6       29.91F
SALT LAKE CITY PTSUNNY   72  55  55 SE8       29.87R
VERNAL         CLOUDY    62  57  83 CALM      29.97F
WENDOVER       CLOUDY    79  46  31 E5        29.86S
HEBER CITY     MOSUNNY   68  54  60 W6        29.96S
WEST JORDAN    CLOUDY    72  61  68 SE6       29.90S

$$

UTZ012>022-026-027-200200-

SOUTHERN UTAH

CITY           SKY/WX    TMP DP  RH WIND       PRES   REMARKS
BRYCE CANYON   CLOUDY    57  52  83 SE8       30.10F
CEDAR CITY     PTSUNNY   66  56  70 SW14G23   29.98R
MILFORD        MOSUNNY   74  53  48 SW16      29.90F
MOAB/CYNLANDS  RAIN      62  61  96 CALM      29.94F FOG
PRICE          CLOUDY    64  56  75 SE3       29.99F
ST GEORGE      PTCLDY    73  61  64 CALM      29.86F
KANAB            N/A     68  57  68 CALM      29.99

$$

REGIONAL REPORTS     COLORADO/ARIZONA

CITY           SKY/WX    TMP DP  RH WIND       PRES   REMARKS
CRAIG, CO      CLOUDY    72  49  44 CALM      30.00
GRAND JUNCTION PTSUNNY   70  54  56 W10       29.92R
RIFLE          PTSUNNY   77  49  37 W14       29.90F
MONTROSE       HVY RAIN  66  57  72 E3        30.03R
CORTEZ         MOSUNNY   64  59  83 N6        30.07R
PAGE, AZ       MOSUNNY   73  59  61 NE5       29.92F
GRAND CANYON   PTSUNNY   66  48  52 SW10      30.08R
KINGMAN        PTSUNNY   72  52  49 SE15      29.91F
FLAGSTAFF      CLOUDY    59  55  87 SW10      30.14R

$$

REGIONAL REPORTS    NEVADA/IDAHO/WYOMING

CITY           SKY/WX    TMP DP  RH WIND       PRES   REMARKS
LAS VEGAS, NV    N/A     89  55  31 SE7       29.71F
ELY            TSTM      55  50  83 N28G37    30.03R
ELKO           CLOUDY    72  47  40 NE16      29.89R THUNDER
POCATELLO, ID  MOSUNNY   80  46  30 S17       29.84R
BURLEY         CLOUDY    78  50  37 S15       29.77S
EVANSTON, WY   PTSUNNY   62  48  60 E5        30.04S
ROCK SPRINGS   CLOUDY    61  49  64 SW13      30.01F

$$



USA.gov is the U.S. government's official web portal to all federal, state and local government web resources and services.